Regional Weather Roundup
Issued by NWS Albany, NY

Home | Current Version | Previous Version | Text Only | Print | Product List | Glossary On
Versions: 1 2 3 4 5 6 7 8 9 10 11 12 13 14 15 16 17 18 19 20 21 22 23 24 25 26 27 28 29 30 31 32 33 34 35 36 37 38 39 40 41 42 43 44 45 46 47 48 49 50
000
ASUS41 KALY 310910
RWRALY

NEW YORK STATE HOURLY WEATHER ROUNDUP
NATIONAL WEATHER SERVICE ALBANY NY
500 AM EDT MON AUG 31 2015

NOTE: "FAIR" INDICATES FEW OR NO CLOUDS BELOW 12,000 FEET WITH NO
SIGNIFICANT WEATHER AND/OR NO OBSTRUCTIONS TO VISIBILITY.

NYZ032-033-038>043-046>054-057>066-NYZ062>081-311000-
EAST


CITY           SKY/WX    TMP DP  RH WIND       PRES   REMARKS
ALBANY         PTCLDY    65  63  93 CALM      30.00S
GLENS FALLS    CLEAR     59  57  93 CALM      29.99S FOG
POUGHKEEPSIE   PTCLDY    66  64  93 CALM      30.00S
NEWBURGH       CLEAR     70  68  94 CALM      30.03S
MONTGOMERY     PTCLDY    68  67  96 SW5       30.01S
WHITE PLAINS   MOCLDY    73  66  78 CALM      30.01S
ISLIP          MOCLDY    73  68  84 SW5       29.99F
NEW YORK CITY  CLOUDY    78  66  66 SW8       30.00S
CENTRAL PARK   MOCLDY    76  67  73 VRB5      30.04S
$$

NYZ005>009-017-018-044>046-055-056-311000-
CENTRAL


CITY           SKY/WX    TMP DP  RH WIND       PRES   REMARKS
FULTON         CLEAR     65  63  93 S3        30.00F FOG
SYRACUSE       CLEAR     63  62  97 CALM      30.00S
ROME           CLEAR     60  59  96 CALM      30.02S
ELMIRA         FOG       65  65 100 W3        30.05S VSB 1/4
BINGHAMTON     PTCLDY    64  64 100 MISG      30.06F FOG
MONTICELLO     PTCLDY    64  64 100 W3        30.08S
$$

NYZ026>034-041>043-311000-
NORTH


CITY           SKY/WX    TMP DP  RH WIND       PRES   REMARKS
WATERTOWN      PTCLDY    64  60  87 S5        29.98S
FORT DRUM      NOT AVBL
MASSENA        PTCLDY    64  60  87 SW9       29.94F
SARANAC LAKE   MOCLDY    57  55  93 SW5       30.01S
PLATTSBURGH    CLEAR     63  59  87 S5        29.94F
$$

NYZ001>004-010>016-019>021-311000-
WEST


CITY           SKY/WX    TMP DP  RH WIND       PRES   REMARKS
NIAGARA FALLS  CLEAR     66  65  96 S3        30.01S FOG
BUFFALO        PTCLDY    66  62  87 S5        30.02S
DUNKIRK        LGT RAIN  70  67  90 SW6       30.03S
JAMESTOWN      PTCLDY    64  63  94 SW7       30.08F
WELLSVILLE     PTCLDY    67  64  90 W6        30.11S
ROCHESTER      CLEAR     65  63  93 SW3       30.01S
PENN YAN       PTCLDY    67  65  93 SW6       30.04S FOG
$$

             KEY
       WCI = WIND CHILL INDEX
       VSB = VISIBILITY
       HX  = HEAT INDEX
$$



USA.gov is the U.S. government's official web portal to all federal, state and local government web resources and services.